User: anonymous   Login
Location: Newark
(0.5300°S, 127.4800°E)
Time: 04:48:44
(UTC+00:00)
Language:

Tiros 1 - Orbit

View from above orbital plane
View from above orbital plane
View from above satellite
View from above satellite

Ground track
Ground track

The orbit data is extracted from the following two-line orbital elements,

1    29U 60002B   19265.13896864 -.00000131  00000-0  11492-4 0  9994
2    29  48.3791 139.5611 0023820 161.2983 198.8809 14.74318541178924
Epoch (UTC): 22 September 2019 03:20:06
Eccentricity: 0.0023820
inclination: 48.3791°
perigee height: 630 km
apogee height: 664 km
right ascension of ascending node: 139.5611°
argument of perigee: 161.2983°
revolutions per day: 14.74318541
mean anomaly at epoch: 198.8809°
orbit number at epoch: 17892

The dashed part of the orbit path shows where the satellite is in the earth's shadow,  

DLR